QPF
0.03 0.02 0.02 0.02 0.03 0.04 0.04 0.04 0.04 0.04 0.03 0.02 0.02 0.01 0.02 0.02 0.03 0.03 0.02 0.03 0.03 0.03 0.04 0.04 0.04 0.03 0.02 0.02 0.02 0.03 0.04 0.05 0.05 0.06 0.07 0.08 0.09 0.08
0.03 0.02 0.02 0.02 0.02 0.03 0.05 0.05 0.04 0.04 0.04 0.03 0.02 0.01 0.02 0.02 0.03 0.02 0.02 0.03 0.03 0.03 0.03 0.03 0.03 0.03 0.03 0.02 0.02 0.02 0.02 0.02 0.03 0.04 0.04 0.06 0.07 0.08
0.04 0.03 0.03 0.02 0.02 0.02 0.03 0.04 0.06 0.05 0.05 0.04 0.03 0.02 0.02 0.02 0.02 0.02 0.02 0.02 0.02 0.02 0.02 0.02 0.02 0.02 0.03 0.03 0.02 0.02 0.02 0.02 0.02 0.02 0.03 0.04 0.04 0.05
0.03 0.03 0.03 0.03 0.03 0.03 0.03 0.03 0.04 0.05 0.05 0.05 0.04 0.03 0.03 0.03 0.03 0.03 0.02 0.02 0.02 0.02 0.02 0.02 0.02 0.02 0.02 0.02 0.02 0.02 0.02 0.02 0.02 0.02 0.02 0.02 0.03 0.05
0.03 0.03 0.03 0.03 0.03 0.03 0.04 0.03 0.03 0.03 0.04 0.04 0.04 0.03 0.03 0.03 0.03 0.03 0.03 0.02 0.02 0.02 0.02 0.02 0.01 0.01 0.01 0.02 0.02 0.02 0.02 0.02 0.02 0.02 0.01 0.01 0.02 0.04
0.04 0.02 0.03 0.03 0.03 0.03 0.04 0.04 0.04 0.03 0.03 0.04 0.05 0.04 0.03 0.03 0.03 0.03 0.03 0.03 0.02 0.02 0.02 0.02 0.02 0.01 0.01 0.01 0.01 0.01 0.01 0.01 0.01 0.01 0.01 0.01 0.01 0.02
0.07 0.04 0.03 0.03 0.04 0.05 0.05 0.05 0.04 0.05 0.04 0.04 0.04 0.05 0.04 0.03 0.03 0.03 0.03 0.03 0.02 0.02 0.02 0.02 0.01 0.01 0.01 0.01 0.01 0.01 0.02 0.02 0.01 0.01 0.01 0.01 0.01 0.01
0.08 0.07 0.05 0.04 0.04 0.06 0.06 0.06 0.05 0.05 0.05 0.05 0.05 0.04 0.04 0.03 0.03 0.03 0.03 0.03 0.03 0.02 0.02 0.02 0.02 0.02 0.01 0.01 0.02 0.02 0.02 0.02 0.02 0.02 0.01 0.01 0.01 0.01
0.05 0.05 0.06 0.05 0.05 0.04 0.05 0.06 0.06 0.06 0.05 0.04 0.04 0.04 0.04 0.04 0.03 0.03 0.02 0.02 0.03 0.02 0.02 0.02 0.02 0.02 0.02 0.02 0.02 0.02 0.02 0.02 0.02 0.01 0.01 0.01 0.01 0.01
0.03 0.04 0.04 0.04 0.05 0.05 0.05 0.04 0.04 0.05 0.04 0.03 0.03 0.03 0.03 0.04 0.04 0.03 0.03 0.03 0.03 0.03 0.03 0.03 0.02 0.02 0.02 0.02 0.03 0.02 0.02 0.02 0.02 0.02 0.02 0.01 0.01 0.01
0.02 0.03 0.03 0.03 0.04 0.05 0.06 0.05 0.05 0.05 0.05 0.05 0.04 0.05 0.05 0.05 0.05 0.05 0.05 0.04 0.04 0.03 0.03 0.03 0.03 0.03 0.03 0.02 0.02 0.03 0.02 0.02 0.02 0.02 0.02 0.02 0.02 0.02
0.03 0.02 0.03 0.03 0.04 0.05 0.05 0.05 0.05 0.05 0.05 0.05 0.05 0.05 0.06 0.06 0.05 0.04 0.05 0.04 0.03 0.03 0.02 0.02 0.03 0.03 0.03 0.03 0.03 0.02 0.02 0.02 0.02 0.02 0.02 0.02 0.02 0.02
0.06 0.04 0.03 0.04 0.04 0.04 0.04 0.04 0.05 0.05 0.07 0.08 0.06 0.05 0.05 0.06 0.06 0.06 0.05 0.04 0.03 0.03 0.02 0.02 0.02 0.03 0.03 0.04 0.03 0.02 0.02 0.02 0.02 0.02 0.02 0.03 0.03 0.03
0.07 0.06 0.05 0.05 0.04 0.04 0.04 0.05 0.06 0.07 0.08 0.10 0.08 0.06 0.05 0.05 0.05 0.05 0.05 0.05 0.04 0.03 0.02 0.02 0.03 0.03 0.03 0.04 0.03 0.03 0.02 0.02 0.02 0.02 0.02 0.02 0.03 0.04
0.06 0.06 0.07 0.06 0.05 0.04 0.04 0.05 0.06 0.07 0.09 0.10 0.09 0.07 0.05 0.04 0.04 0.04 0.04 0.04 0.04 0.04 0.03 0.03 0.03 0.03 0.03 0.04 0.03 0.02 0.03 0.03 0.02 0.02 0.02 0.03 0.03 0.03
0.04 0.04 0.05 0.07 0.07 0.05 0.05 0.06 0.06 0.06 0.08 0.10 0.09 0.08 0.06 0.06 0.04 0.03 0.04 0.04 0.04 0.04 0.03 0.02 0.03 0.03 0.03 0.03 0.03 0.03 0.03 0.03 0.02 0.03 0.03 0.03 0.03 0.03
0.04 0.04 0.05 0.06 0.07 0.07 0.06 0.06 0.07 0.07 0.08 0.09 0.10 0.09 0.08 0.06 0.05 0.04 0.03 0.03 0.03 0.03 0.03 0.03 0.03 0.04 0.04 0.04 0.04 0.04 0.03 0.02 0.02 0.02 0.03 0.03 0.03 0.04
0.05 0.05 0.05 0.06 0.06 0.07 0.07 0.07 0.06 0.07 0.07 0.08 0.09 0.10 0.08 0.07 0.06 0.05 0.04 0.03 0.03 0.03 0.03 0.03 0.04 0.05 0.06 0.07 0.06 0.05 0.04 0.03 0.02 0.02 0.02 0.03 0.03 0.03
0.06 0.05 0.05 0.05 0.06 0.06 0.07 0.07 0.06 0.06 0.07 0.07 0.08 0.08 0.08 0.07 0.07 0.06 0.05 0.04 0.04 0.04 0.04 0.04 0.04 0.04 0.05 0.06 0.07 0.06 0.05 0.04 0.03 0.03 0.03 0.03 0.03 0.03
0.05 0.05 0.05 0.05 0.06 0.06 0.07 0.07 0.07 0.06 0.07 0.07 0.07 0.07 0.07 0.06 0.06 0.06 0.05 0.05 0.04 0.05 0.06 0.05 0.04 0.04 0.03 0.03 0.03 0.05 0.05 0.05 0.04 0.03 0.03 0.03 0.04 0.03
0.05 0.05 0.05 0.05 0.06 0.06 0.06 0.06 0.06 0.07 0.07 0.07 0.06 0.06 0.06 0.05 0.05 0.06 0.05 0.05 0.05 0.06 0.06 0.06 0.05 0.05 0.04 0.04 0.04 0.04 0.05 0.05 0.04 0.04 0.04 0.04 0.04 0.04
0.04 0.05 0.05 0.05 0.06 0.07 0.07 0.07 0.07 0.07 0.07 0.07 0.07 0.06 0.06 0.05 0.05 0.06 0.05 0.05 0.05 0.05 0.06 0.06 0.07 0.07 0.07 0.06 0.05 0.04 0.04 0.05 0.05 0.04 0.04 0.04 0.04 0.04
0.05 0.05 0.04 0.05 0.06 0.06 0.07 0.07 0.07 0.07 0.07 0.08 0.08 0.07 0.06 0.06 0.06 0.06 0.06 0.05 0.05 0.06 0.07 0.07 0.08 0.08 0.07 0.06 0.05 0.04 0.04 0.04 0.04 0.04 0.04 0.04 0.03 0.03
MSLP
1026.49 1026.13 1025.79 1025.43 1025.05 1024.63 1024.16 1023.63 1023.03 1022.38 1021.68 1020.96 1020.23 1019.52 1018.83 1018.18 1017.56 1016.96 1016.38 1015.78 1015.14 1014.45 1013.69 1012.86 1011.98 1011.06 1010.16 1009.30 1008.54 1007.94 1007.52 1007.30 1007.29 1007.48 1007.84 1008.32 1008.86 1009.43
1026.25 1025.90 1025.55 1025.20 1024.83 1024.43 1023.99 1023.50 1022.95 1022.34 1021.68 1020.98 1020.26 1019.53 1018.80 1018.10 1017.41 1016.75 1016.10 1015.44 1014.75 1014.02 1013.23 1012.39 1011.49 1010.57 1009.64 1008.77 1008.00 1007.37 1006.93 1006.69 1006.67 1006.84 1007.18 1007.65 1008.18 1008.73
1025.96 1025.59 1025.22 1024.86 1024.50 1024.12 1023.72 1023.28 1022.79 1022.24 1021.64 1020.98 1020.28 1019.55 1018.79 1018.03 1017.28 1016.53 1015.79 1015.05 1014.29 1013.51 1012.68 1011.81 1010.90 1009.97 1009.04 1008.18 1007.42 1006.81 1006.39 1006.17 1006.17 1006.36 1006.72 1007.19 1007.72 1008.26
1025.63 1025.24 1024.85 1024.48 1024.12 1023.76 1023.39 1023.00 1022.58 1022.10 1021.56 1020.96 1020.29 1019.56 1018.79 1017.99 1017.17 1016.34 1015.52 1014.69 1013.86 1013.00 1012.12 1011.21 1010.27 1009.32 1008.41 1007.56 1006.82 1006.25 1005.87 1005.70 1005.75 1005.99 1006.38 1006.88 1007.43 1007.98
1025.27 1024.86 1024.46 1024.07 1023.71 1023.37 1023.04 1022.70 1022.33 1021.92 1021.45 1020.90 1020.27 1019.56 1018.79 1017.96 1017.09 1016.21 1015.32 1014.41 1013.50 1012.57 1011.63 1010.65 1009.67 1008.70 1007.76 1006.91 1006.20 1005.66 1005.33 1005.22 1005.33 1005.64 1006.09 1006.63 1007.21 1007.77
1024.88 1024.46 1024.05 1023.66 1023.30 1022.97 1022.67 1022.37 1022.05 1021.69 1021.27 1020.77 1020.18 1019.50 1018.74 1017.92 1017.04 1016.13 1015.19 1014.24 1013.27 1012.27 1011.26 1010.22 1009.17 1008.13 1007.16 1006.28 1005.56 1005.03 1004.73 1004.68 1004.85 1005.22 1005.73 1006.33 1006.95 1007.52
1024.45 1024.03 1023.62 1023.24 1022.88 1022.57 1022.28 1022.00 1021.71 1021.38 1020.99 1020.53 1019.98 1019.34 1018.61 1017.82 1016.96 1016.06 1015.13 1014.16 1013.16 1012.12 1011.03 1009.92 1008.79 1007.67 1006.62 1005.68 1004.91 1004.37 1004.07 1004.04 1004.26 1004.68 1005.25 1005.89 1006.54 1007.13
1023.95 1023.55 1023.15 1022.78 1022.44 1022.13 1021.84 1021.57 1021.28 1020.96 1020.59 1020.15 1019.63 1019.03 1018.36 1017.62 1016.83 1015.98 1015.09 1014.15 1013.15 1012.08 1010.94 1009.75 1008.53 1007.31 1006.16 1005.12 1004.28 1003.68 1003.36 1003.32 1003.55 1004.00 1004.60 1005.28 1005.95 1006.55
1023.38 1023.00 1022.63 1022.28 1021.95 1021.64 1021.35 1021.06 1020.76 1020.43 1020.05 1019.62 1019.12 1018.57 1017.96 1017.30 1016.59 1015.84 1015.03 1014.15 1013.17 1012.11 1010.94 1009.68 1008.37 1007.04 1005.77 1004.62 1003.68 1003.00 1002.62 1002.55 1002.77 1003.21 1003.83 1004.52 1005.20 1005.80
1022.73 1022.38 1022.04 1021.72 1021.41 1021.10 1020.80 1020.49 1020.16 1019.79 1019.39 1018.95 1018.48 1017.96 1017.42 1016.85 1016.25 1015.60 1014.89 1014.09 1013.18 1012.13 1010.94 1009.64 1008.24 1006.81 1005.43 1004.17 1003.13 1002.36 1001.91 1001.79 1001.97 1002.41 1003.01 1003.69 1004.36 1004.95
1022.02 1021.71 1021.41 1021.11 1020.82 1020.52 1020.20 1019.86 1019.50 1019.10 1018.67 1018.21 1017.74 1017.27 1016.79 1016.31 1015.81 1015.27 1014.66 1013.95 1013.09 1012.07 1010.89 1009.54 1008.08 1006.57 1005.10 1003.75 1002.62 1001.78 1001.27 1001.10 1001.25 1001.66 1002.25 1002.92 1003.57 1004.14
1021.26 1020.99 1020.73 1020.47 1020.20 1019.91 1019.59 1019.22 1018.83 1018.39 1017.93 1017.46 1017.00 1016.55 1016.12 1015.71 1015.30 1014.85 1014.32 1013.68 1012.87 1011.88 1010.68 1009.32 1007.82 1006.26 1004.72 1003.32 1002.14 1001.25 1000.71 1000.53 1000.66 1001.06 1001.63 1002.29 1002.93 1003.48
1020.50 1020.26 1020.04 1019.81 1019.57 1019.30 1018.98 1018.61 1018.19 1017.74 1017.26 1016.78 1016.32 1015.89 1015.49 1015.13 1014.76 1014.36 1013.89 1013.28 1012.49 1011.50 1010.30 1008.91 1007.38 1005.79 1004.24 1002.82 1001.63 1000.75 1000.23 1000.05 1000.20 1000.61 1001.19 1001.85 1002.49 1003.04
1019.73 1019.53 1019.35 1019.16 1018.96 1018.71 1018.41 1018.05 1017.63 1017.17 1016.69 1016.21 1015.75 1015.33 1014.95 1014.60 1014.25 1013.86 1013.38 1012.76 1011.94 1010.92 1009.69 1008.27 1006.72 1005.13 1003.58 1002.19 1001.05 1000.23 999.76 999.64 999.84 1000.30 1000.92 1001.60 1002.27 1002.83
1018.99 1018.82 1018.68 1018.54 1018.38 1018.17 1017.90 1017.57 1017.17 1016.73 1016.26 1015.79 1015.34 1014.92 1014.54 1014.17 1013.79 1013.36 1012.82 1012.13 1011.25 1010.16 1008.86 1007.40 1005.84 1004.25 1002.73 1001.40 1000.34 999.61 999.25 999.23 999.53 1000.07 1000.76 1001.50 1002.21 1002.81
1018.29 1018.16 1018.06 1017.96 1017.84 1017.68 1017.45 1017.16 1016.81 1016.40 1015.97 1015.52 1015.08 1014.66 1014.26 1013.84 1013.40 1012.88 1012.24 1011.44 1010.44 1009.24 1007.85 1006.33 1004.73 1003.15 1001.68 1000.43 999.48 998.88 998.65 998.77 999.19 999.84 1000.63 1001.46 1002.24 1002.91
1017.64 1017.55 1017.48 1017.43 1017.36 1017.24 1017.07 1016.83 1016.53 1016.17 1015.78 1015.36 1014.94 1014.52 1014.08 1013.61 1013.07 1012.44 1011.66 1010.71 1009.56 1008.21 1006.71 1005.10 1003.46 1001.89 1000.47 999.31 998.47 998.01 997.93 998.21 998.78 999.57 1000.48 1001.42 1002.29 1003.05
1017.06 1017.01 1016.98 1016.96 1016.93 1016.86 1016.73 1016.55 1016.30 1016.00 1015.65 1015.28 1014.88 1014.44 1013.97 1013.43 1012.79 1012.02 1011.09 1009.97 1008.65 1007.15 1005.52 1003.81 1002.12 1000.54 999.17 998.09 997.38 997.06 997.13 997.57 998.30 999.23 1000.28 1001.34 1002.33 1003.19
1016.57 1016.55 1016.56 1016.57 1016.57 1016.53 1016.44 1016.30 1016.10 1015.84 1015.54 1015.20 1014.81 1014.37 1013.86 1013.25 1012.51 1011.61 1010.53 1009.24 1007.76 1006.11 1004.35 1002.55 1000.81 999.23 997.89 996.89 996.28 996.10 996.32 996.91 997.79 998.87 1000.05 1001.24 1002.35 1003.32
1016.19 1016.19 1016.22 1016.25 1016.27 1016.24 1016.18 1016.06 1015.89 1015.67 1015.40 1015.07 1014.70 1014.24 1013.70 1013.02 1012.20 1011.18 1009.96 1008.53 1006.91 1005.13 1003.27 1001.40 999.63 998.04 996.74 995.81 995.30 995.24 995.59 996.31 997.32 998.53 999.84 1001.15 1002.38 1003.47
1015.90 1015.92 1015.97 1016.00 1016.01 1015.99 1015.92 1015.80 1015.64 1015.42 1015.16 1014.85 1014.47 1014.01 1013.43 1012.70 1011.80 1010.70 1009.38 1007.85 1006.12 1004.26 1002.33 1000.42 998.63 997.06 995.80 994.94 994.53 994.55 995.01 995.84 996.97 998.29 999.71 1001.12 1002.46 1003.65
1015.70 1015.73 1015.77 1015.79 1015.78 1015.73 1015.63 1015.50 1015.31 1015.09 1014.82 1014.49 1014.10 1013.61 1013.01 1012.24 1011.29 1010.13 1008.75 1007.16 1005.38 1003.48 1001.53 999.62 997.85 996.33 995.13 994.34 994.00 994.11 994.65 995.56 996.77 998.17 999.67 1001.17 1002.59 1003.88
1015.55 1015.57 1015.59 1015.57 1015.53 1015.43 1015.29 1015.11 1014.89 1014.63 1014.32 1013.97 1013.55 1013.04 1012.40 1011.61 1010.63 1009.44 1008.04 1006.44 1004.66 1002.78 1000.86 999.00 997.29 995.84 994.72 994.00 993.73 993.91 994.51 995.47 996.73 998.18 999.73 1001.28 1002.77 1004.12
Thickness
5473 5476 5480 5484 5487 5491 5494 5497 5499 5503 5509 5514 5518 5522 5525 5529 5532 5534 5537 5541 5544 5547 5549 5551 5553 5554 5555 5556 5557 5558 5559 5559 5559 5560 5559 5558 5557 5556
5459 5462 5466 5470 5473 5477 5481 5485 5488 5490 5495 5502 5505 5509 5512 5516 5519 5522 5525 5529 5532 5535 5537 5540 5542 5544 5545 5546 5548 5549 5549 5549 5550 5550 5549 5549 5548 5547
5446 5449 5453 5456 5459 5463 5466 5470 5474 5477 5481 5487 5491 5495 5498 5502 5506 5509 5513 5516 5520 5523 5526 5528 5531 5533 5535 5536 5538 5538 5539 5540 5540 5540 5539 5539 5538 5538
5433 5435 5439 5442 5445 5448 5452 5456 5461 5465 5468 5472 5477 5480 5484 5489 5493 5496 5500 5504 5507 5511 5513 5516 5520 5522 5524 5526 5528 5528 5529 5530 5530 5530 5529 5529 5529 5528
5420 5423 5426 5429 5432 5435 5439 5442 5447 5452 5456 5459 5464 5468 5471 5475 5479 5483 5486 5490 5494 5498 5501 5504 5508 5511 5513 5515 5517 5518 5519 5520 5520 5519 5519 5519 5518 5518
5408 5411 5414 5417 5420 5423 5426 5429 5433 5438 5443 5447 5451 5455 5459 5463 5466 5469 5473 5476 5480 5484 5488 5491 5494 5497 5501 5504 5507 5507 5508 5508 5509 5509 5509 5509 5508 5507
5396 5399 5402 5405 5408 5411 5415 5418 5421 5425 5429 5434 5439 5442 5446 5450 5454 5457 5460 5463 5467 5471 5474 5478 5482 5485 5488 5491 5493 5495 5496 5497 5498 5498 5498 5498 5497 5496
5383 5386 5389 5393 5396 5400 5404 5408 5411 5414 5418 5423 5427 5432 5436 5439 5443 5446 5448 5451 5455 5460 5461 5465 5468 5471 5475 5478 5481 5483 5484 5485 5486 5487 5487 5487 5486 5485
5369 5374 5378 5382 5385 5388 5392 5396 5400 5405 5410 5413 5418 5423 5426 5430 5432 5434 5437 5440 5445 5448 5448 5452 5455 5458 5462 5466 5469 5471 5473 5474 5474 5475 5475 5475 5474 5473
5357 5361 5366 5370 5374 5377 5381 5385 5390 5395 5400 5404 5409 5414 5416 5419 5422 5425 5427 5429 5432 5435 5437 5439 5443 5446 5450 5452 5455 5458 5460 5461 5462 5462 5462 5462 5461 5461
5346 5351 5355 5361 5365 5369 5372 5376 5380 5384 5389 5393 5398 5402 5406 5409 5411 5412 5414 5417 5420 5423 5425 5427 5430 5432 5436 5439 5442 5444 5446 5448 5449 5450 5450 5449 5449 5448
5336 5342 5346 5351 5355 5359 5362 5366 5370 5375 5378 5382 5387 5391 5395 5398 5401 5404 5406 5408 5409 5411 5414 5416 5417 5419 5421 5426 5428 5430 5432 5434 5435 5436 5436 5436 5436 5435
5326 5331 5337 5341 5346 5349 5353 5357 5362 5365 5368 5372 5376 5381 5384 5387 5390 5393 5396 5399 5400 5402 5405 5406 5406 5407 5408 5411 5414 5416 5418 5420 5421 5422 5423 5423 5422 5422
5316 5321 5326 5331 5336 5340 5344 5348 5352 5355 5358 5362 5367 5371 5374 5377 5380 5382 5385 5387 5391 5394 5395 5396 5396 5397 5398 5398 5401 5402 5404 5406 5407 5408 5409 5409 5409 5408
5307 5313 5317 5322 5326 5330 5335 5339 5342 5345 5348 5353 5358 5361 5364 5367 5369 5371 5372 5375 5377 5380 5382 5385 5386 5387 5388 5389 5390 5390 5391 5392 5393 5395 5395 5395 5395 5395
5299 5304 5308 5312 5317 5322 5326 5329 5332 5336 5340 5344 5347 5350 5353 5355 5359 5361 5362 5364 5365 5367 5369 5372 5374 5376 5377 5378 5379 5380 5380 5380 5381 5381 5382 5382 5382 5382
5291 5295 5299 5303 5308 5312 5316 5320 5324 5327 5330 5334 5336 5339 5342 5346 5349 5351 5353 5354 5356 5357 5358 5359 5361 5363 5366 5368 5367 5368 5369 5369 5369 5369 5369 5369 5369 5370
5282 5286 5291 5295 5299 5303 5307 5311 5315 5318 5321 5324 5327 5330 5333 5336 5339 5341 5344 5345 5347 5348 5348 5349 5350 5351 5352 5353 5356 5358 5358 5358 5358 5357 5357 5357 5358 5359
5273 5277 5281 5286 5290 5294 5297 5301 5305 5309 5312 5315 5318 5321 5324 5327 5330 5333 5335 5336 5337 5338 5339 5340 5341 5342 5343 5344 5344 5346 5347 5347 5346 5346 5346 5346 5347 5348
5263 5267 5272 5276 5280 5284 5288 5292 5296 5300 5303 5307 5310 5313 5315 5319 5322 5324 5326 5328 5329 5329 5329 5330 5332 5334 5336 5337 5335 5335 5336 5337 5336 5335 5335 5336 5336 5337
5253 5257 5261 5266 5270 5274 5279 5283 5287 5291 5295 5298 5301 5304 5307 5310 5312 5315 5317 5319 5320 5321 5322 5322 5324 5325 5325 5325 5324 5324 5324 5325 5327 5326 5326 5325 5325 5325
5243 5247 5252 5256 5260 5264 5269 5274 5278 5282 5286 5290 5293 5296 5299 5302 5304 5307 5309 5311 5312 5312 5313 5313 5314 5315 5316 5316 5316 5315 5314 5314 5315 5316 5316 5317 5315 5315
5233 5237 5242 5247 5251 5255 5260 5265 5270 5274 5278 5281 5285 5288 5291 5294 5296 5298 5301 5302 5303 5303 5304 5304 5304 5305 5306 5307 5306 5305 5304 5304 5304 5305 5305 5306 5307 5307